Location: Rancho Del Sol Observatory
(38.7214°N, 120.6350°W)
Time: 03:39:06
(UTC-08:00)

Altair - All Passes

Search period start: 24 January 2020 00:00
Search period end: 03 February 2020 00:00
Orbit: 1502 x 1682 km, 47.2° (Epoch: 23 January)

Date Brightness Start Highest point End Pass type
(mag) Time Alt. Az. Time Alt. Az. Time Alt. Az.
24 Jan - 06:02:53 10° SSE 06:09:08 19° ESE 06:15:28 10° E visible
24 Jan - 08:02:42 10° SW 08:12:33 66° SE 08:22:35 10° ENE daylight
24 Jan - 10:07:41 10° W 10:17:43 63° NNW 10:27:48 10° ENE daylight
24 Jan - 12:14:06 10° WNW 12:24:03 54° N 12:33:50 10° E daylight
24 Jan - 14:19:39 10° WNW 14:29:52 87° NNE 14:39:45 10° ESE daylight
24 Jan - 16:25:18 10° WNW 16:33:58 35° SW 16:42:23 10° SSE daylight
25 Jan - 05:38:33 10° SSE 05:44:06 17° ESE 05:49:43 10° E visible
25 Jan - 07:37:39 10° SW 07:47:23 61° SE 07:57:20 10° ENE daylight
25 Jan - 09:42:22 10° W 09:52:25 65° NNW 10:02:33 10° ENE daylight
25 Jan - 11:48:48 10° WNW 11:58:44 54° N 12:08:32 10° E daylight
25 Jan - 13:54:25 10° WNW 14:04:38 83° NNE 14:14:34 10° ESE daylight
25 Jan - 15:59:56 10° WNW 16:08:53 38° SW 16:17:33 10° SSE daylight
26 Jan - 05:14:23 10° SSE 05:19:04 14° ESE 05:23:47 10° E visible
26 Jan - 07:12:37 10° SSW 07:22:14 57° SE 07:32:04 10° ENE daylight
26 Jan - 09:17:05 10° WSW 09:27:08 68° NNW 09:37:18 10° ENE daylight
26 Jan - 11:23:30 10° WNW 11:33:24 53° N 11:43:13 10° E daylight
26 Jan - 13:29:10 10° WNW 13:39:25 79° NNE 13:49:21 10° ESE daylight
26 Jan - 15:34:36 10° WNW 15:43:47 42° SW 15:52:42 10° SSE daylight
27 Jan - 04:50:33 10° SE 04:54:03 12° ESE 04:57:33 10° E visible
27 Jan - 06:47:37 10° SSW 06:57:06 53° SE 07:06:48 10° ENE daylight
27 Jan - 08:51:49 10° WSW 09:01:52 70° NNW 09:12:03 10° ENE daylight
27 Jan - 10:58:10 10° WNW 11:08:04 53° N 11:17:54 10° ENE daylight
27 Jan - 13:03:55 10° WNW 13:14:09 76° NNE 13:24:07 10° ESE daylight
27 Jan - 15:09:17 10° WNW 15:18:40 46° SW 15:27:48 10° SSE daylight
28 Jan - 04:27:41 10° SE 04:29:02 10° ESE 04:30:21 10° ESE visible
28 Jan - 06:22:39 10° SSW 06:31:58 49° SE 06:41:30 10° ENE visible
28 Jan - 08:26:33 10° WSW 08:36:36 73° NNW 08:46:49 10° ENE daylight
28 Jan - 10:32:51 10° WNW 10:42:44 53° N 10:52:36 10° ENE daylight
28 Jan - 12:38:41 10° WNW 12:48:53 72° NNE 12:58:53 10° ESE daylight
28 Jan - 14:43:59 10° WNW 14:53:33 50° SW 15:02:51 10° SSE daylight
28 Jan - 16:54:29 10° WSW 16:56:30 11° WSW 16:58:30 10° SW daylight
29 Jan - 05:57:42 10° SSW 06:06:50 45° SE 06:16:13 10° ENE visible
29 Jan - 08:01:19 10° WSW 08:11:20 77° NNW 08:21:34 10° ENE daylight
29 Jan - 10:07:32 10° WNW 10:17:24 53° N 10:27:17 10° ENE daylight
29 Jan - 12:13:26 10° WNW 12:23:37 69° NNE 12:33:37 10° ESE daylight
29 Jan - 14:18:41 10° WNW 14:28:25 54° SW 14:37:53 10° SSE daylight
29 Jan - 16:27:41 10° W 16:31:29 13° WSW 16:35:15 10° SW daylight
30 Jan - 05:32:48 10° SSW 05:41:44 41° SE 05:50:53 10° ENE visible
30 Jan - 07:36:05 10° WSW 07:46:05 80° NNW 07:56:19 10° ENE daylight
30 Jan - 09:42:13 10° W 09:52:04 53° N 10:01:58 10° ENE daylight
30 Jan - 11:48:11 10° WNW 11:58:21 67° NNE 12:08:21 10° ESE daylight
30 Jan - 13:53:26 10° WNW 14:03:16 58° SW 14:12:52 10° SSE daylight
30 Jan - 16:01:32 10° W 16:06:27 15° WSW 16:11:19 10° SSW daylight
31 Jan - 05:07:56 10° SSW 05:16:38 37° SE 05:25:33 10° ENE visible
31 Jan - 07:10:53 10° WSW 07:20:51 84° NNW 07:31:06 10° ENE daylight
31 Jan - 09:16:53 10° W 09:26:44 54° N 09:36:40 10° ENE daylight
31 Jan - 11:22:55 10° WNW 11:33:04 64° NNE 11:43:03 10° E daylight
31 Jan - 13:28:09 10° WNW 13:38:07 62° SW 13:47:50 10° SE daylight
31 Jan - 15:35:40 10° W 15:41:25 17° WSW 15:47:07 10° SSW daylight
01 Feb - 04:43:08 10° S 04:51:32 34° SE 05:00:10 10° ENE visible
01 Feb - 06:45:41 10° WSW 06:55:37 88° NNW 07:05:51 10° ENE daylight
01 Feb - 08:51:35 10° W 09:01:25 54° N 09:11:22 10° ENE daylight
01 Feb - 10:57:40 10° WNW 11:07:46 62° NNE 11:17:46 10° E daylight
01 Feb - 13:02:54 10° WNW 13:12:57 67° SW 13:22:46 10° SE daylight
01 Feb - 15:09:56 10° W 15:16:23 19° SW 15:22:44 10° SSW daylight
02 Feb - 04:18:21 10° S 04:26:27 31° SE 04:34:47 10° ENE visible
02 Feb - 06:20:31 10° SW 06:30:24 88° SSE 06:40:37 10° ENE visible
02 Feb - 08:26:16 10° W 08:36:05 55° N 08:46:04 10° ENE daylight
02 Feb - 10:32:25 10° WNW 10:42:27 60° NNE 10:52:27 10° E daylight
02 Feb - 12:37:39 10° WNW 12:47:47 72° SW 12:57:41 10° SE daylight
02 Feb - 14:44:18 10° W 14:51:19 22° SW 14:58:16 10° S daylight
